This is the latest recevied weather packets stored in our database for station/object K5GHS-1. If no packets are shown the sender has not sent any weather packets the latest 10 day(s).
| Time | Temp. | Humidity | Pressure | Rain* | Wind** | Luminosity | Snow |
|---|---|---|---|---|---|---|---|
| 1777594887 | 16.67° C | 75% | 1012.7 hPa | 0 mm | - | 2 W/m² | - |
| 1777594584 | 16.67° C | 75% | 1012.4 hPa | 0 mm | - | 2 W/m² | - |
| 1777594280 | 16.67° C | 75% | 1012.2 hPa | 0 mm | - | 5 W/m² | - |
| 1777593976 | 16.67° C | 75% | 1011.9 hPa | 0 mm | - | 9 W/m² | - |
| 1777593672 | 16.67° C | 74% | 1011.6 hPa | 0 mm | - | 12 W/m² | - |
| 1777593369 | 16.67° C | 74% | 1011.4 hPa | 0 mm | - | 17 W/m² | - |
| 1777593068 | 16.67° C | 74% | 1011.2 hPa | 0 mm | - | 23 W/m² | - |
| 1777592767 | 16.67° C | 74% | 1011.2 hPa | 0 mm | - | 28 W/m² | - |
| 1777592463 | 16.67° C | 74% | 1011.5 hPa | 0 mm | - | 36 W/m² | - |
| 1777592163 | 17.22° C | 74% | 1011.7 hPa | 0 mm | - | 46 W/m² | - |
| 1777591860 | 16.67° C | 73% | 1011.9 hPa | 0 mm | - | 56 W/m² | - |
| 1777591556 | 17.22° C | 74% | 1011.8 hPa | 0 mm | - | 32 W/m² | - |
| 1777591253 | 17.22° C | 73% | 1011.9 hPa | 0 mm | - | 45 W/m² | - |
| 1777590948 | 17.22° C | 73% | 1011.8 hPa | 0 mm | - | 51 W/m² | - |
| 1777590644 | 17.22° C | 73% | 1011.7 hPa | 0 mm | - | 20 W/m² | - |
| 1777590340 | 17.22° C | 72% | 1011.7 hPa | 0 mm | - | 58 W/m² | - |
| 1777590038 | 17.22° C | 72% | 1011.4 hPa | 0 mm | - | 90 W/m² | - |
| 1777589734 | 17.22° C | 74% | 1011.4 hPa | 0 mm | - | 96 W/m² | - |
| 1777589432 | 17.22° C | 74% | 1011.4 hPa | 0 mm | - | 99 W/m² | - |
| 1777589128 | 17.22° C | 74% | 1011.7 hPa | 0 mm | - | 72 W/m² | - |
| 1777588824 | 17.22° C | 73% | 1012 hPa | 0 mm | - | 52 W/m² | - |
| 1777588520 | 17.22° C | 73% | 1011.9 hPa | 0 mm | - | 75 W/m² | - |
| 1777588216 | 17.22° C | 74% | 1012.1 hPa | 0 mm | - | 69 W/m² | - |
| 1777587911 | 17.22° C | 74% | 1011.9 hPa | 0 mm | - | 63 W/m² | - |
| 1777587608 | 17.22° C | 74% | 1011.8 hPa | 0 mm | - | 52 W/m² | - |
* Rain latest hour (hover to see other rain measurements)
** Current wind speed in m/s (hover to see current wind gust speed)